EUTELSAT 7B

Last updated on Sat Nov 01 2025 00:02:47 GMT+0000 (Coordinated Universal Time)

1 39163U 13022A 25304.61310211 .00000059 00000+0 00000+0 0 9991 2 39163 0.0777 26.7514 0002432 280.1426 321.0071 1.00272333 45660
UTC large
Height (km)
Speed (km/s)
/
Latitude / Longitude
Inclination (degrees)
Orbital Period (minutes)
Azimuth
Elevation
Range (km)
Doppler Factor

Next 0 passes for location: London (51.5072 / 0.1276)

Sorry there are no passes over London.